Vorticity
11 24 6 9 9 4 9 9 10 -4 10 10 12 6 5 4 2 3 5 3 3 1 4 8 7 11 6 4 6 6 5 3 5 3 3 6 9 6 3 3 8 21 52 29
2 28 10 9 8 7 3 3 4 4 8 11 7 6 7 9 6 5 1 3 6 11 11 9 12 5 5 6 6 6 3 7 3 7 10 9 5 1 5 7 18 58 20 12
-7 7 13 9 8 12 9 8 11 4 5 7 8 6 4 5 8 4 5 3 6 8 2 8 6 5 5 8 6 5 5 5 6 10 8 1 4 4 5 25 52 19 13 11
6 9 4 8 19 11 5 11 9 10 8 5 7 4 2 6 11 4 3 10 7 7 12 10 7 8 11 4 4 5 5 7 9 4 4 5 5 6 30 43 23 14 12 12
9 3 4 2 8 16 8 18 13 12 13 17 16 16 9 9 4 2 6 9 15 12 11 8 7 6 3 1 3 4 8 7 4 6 3 7 5 31 42 23 11 8 12 13
14 3 0 1 8 10 -8 14 5 2 1 8 9 7 5 13 2 11 15 14 8 8 7 7 5 3 3 4 6 7 8 7 2 3 9 5 36 35 22 9 9 9 10 11
11 9 2 6 -0 -8 5 -8 -2 1 1 -7 4 5 1 1 3 13 13 11 9 7 9 7 4 8 10 6 9 9 5 1 6 7 3 31 39 15 11 10 9 8 9 14
-8 5 6 6 2 6 -2 4 3 11 6 8 8 5 4 6 7 15 12 8 7 10 6 14 10 6 7 9 8 3 3 9 8 8 36 40 19 11 6 8 8 9 6 12
2 1 5 18 10 8 10 1 4 2 6 7 8 10 7 16 16 8 9 8 10 8 8 8 8 8 9 3 2 7 10 7 10 36 35 20 11 7 4 8 8 8 7 4
12 18 6 0 -8 0 22 11 4 10 14 15 19 16 12 9 13 13 10 6 6 9 8 7 11 8 2 3 9 7 7 17 34 29 18 9 8 7 7 9 7 10 9 9
22 19 19 22 25 21 13 17 21 16 14 14 14 16 11 7 6 6 6 8 9 8 10 7 3 3 5 6 7 10 26 30 22 16 9 9 7 5 8 11 11 10 11 9
10 11 18 17 14 20 16 17 16 11 12 11 6 4 5 7 8 8 10 8 8 9 2 3 4 7 8 7 11 29 27 19 15 10 8 7 7 6 11 11 9 9 8 8
-13 -18 -6 -5 -3 7 14 20 14 6 5 4 9 11 10 9 11 10 9 9 4 2 6 7 8 9 10 16 37 22 19 15 9 9 8 8 8 8 5 4 6 5 6 7
17 11 29 29 19 14 20 16 9 8 10 10 10 7 11 10 11 9 5 3 5 7 8 8 10 19 23 32 15 18 10 6 4 4 8 6 5 5 5 6 5 7 10 11
16 6 15 12 27 29 18 15 7 13 13 13 12 10 7 4 4 1 5 6 8 9 11 16 26 26 25 14 15 10 8 7 9 5 4 4 4 4 7 13 26 27 25 25
25 32 17 12 -11 12 9 9 18 14 9 7 2 4 7 5 4 6 10 13 12 13 21 36 27 15 12 10 5 6 7 4 4 5 6 5 8 15 24 20 15 13 14 14
2 4 15 5 7 2 23 12 10 12 5 6 4 -0 2 8 10 12 12 14 22 35 33 20 8 10 2 5 3 2 3 5 6 6 8 13 20 15 12 13 14 14 14 14
9 13 18 20 16 15 5 -0 -7 1 3 5 6 10 11 11 12 18 17 27 27 18 11 5 4 5 5 0 2 3 6 6 7 12 17 15 9 16 11 10 12 13 13 16
12 17 6 -1 -3 3 7 7 8 9 9 11 14 11 16 19 20 25 26 22 13 7 4 4 4 5 6 3 4 7 6 10 16 15 10 14 12 10 10 9 8 8 8 8
12 11 6 0 3 9 14 16 16 14 12 12 15 21 22 21 21 14 8 0 -2 1 7 7 4 3 5 6 6 10 16 15 9 11 10 8 10 9 9 8 8 10 10 10
-2 2 9 14 15 13 13 12 12 11 16 23 22 16 13 6 3 2 2 5 8 6 4 6 7 8 12 15 15 11 9 11 10 8 8 7 7 8 8 8 9 10 10 10
19 18 15 14 12 13 15 15 21 21 18 12 10 7 5 3 5 9 9 6 6 5 6 14 18 14 11 10 10 10 11 12 13 11 11 10 9 9 9 8 8 8 8 9
13 12 11 13 14 16 17 14 10 7 5 5 5 8 11 9 6 5 4 4 13 21 12 6 3 4 11 15 14 13 12 12 11 10 10 9 9 9 9 8 8 8 6 5
11 14 19 24 21 18 14 11 10 12 15 12 7 6 6 4 4 10 19 17 6 2 -0 -7 -2 1 1 12 17 14 11 10 9 8 8 8 8 8 8 8 7 6 5 5
22 19 15 13 12 13 15 9 4 3 5 7 5 5 8 14 15 14 3 2 5 3 2 5 5 8 8 11 13 12 10 10 10 9 8 8 8 9 10 10 11 13 15 17
11 12 12 11 6 5 6 7 7 6 5 6 11 14 13 11 2 0 1 -0 -0 -4 -1 12 14 9 13 12 8 6 7 9 11 13 16 18 19 20 23 26 30 32 35 35
8 7 8 8 6 6 5 4 5 8 12 11 12 7 2 1 3 2 -2 -1 -3 7 20 13 13 13 7 3 6 8 12 20 24 27 28 29 29 30 30 30 29 26 23 24
Height
5645 5651 5654 5658 5661 5666 5665 5671 5669 5681 5678 5684 5686 5687 5689 5689 5689 5692 5694 5693 5692 5693 5692 5690 5688 5685 5681 5675 5671 5667 5662 5658 5652 5645 5636 5627 5617 5606 5594 5583 5572 5559 5548 5538
5633 5637 5641 5646 5651 5655 5657 5660 5662 5666 5669 5674 5675 5675 5677 5680 5679 5681 5681 5681 5680 5679 5677 5676 5675 5670 5665 5661 5658 5653 5648 5643 5636 5628 5618 5609 5599 5589 5580 5567 5554 5543 5534 5524
5623 5627 5629 5630 5639 5644 5649 5650 5656 5654 5662 5663 5662 5663 5667 5667 5667 5668 5669 5669 5667 5665 5665 5663 5660 5656 5652 5648 5642 5638 5632 5626 5619 5611 5602 5592 5583 5574 5562 5551 5539 5530 5521 5512
5611 5615 5614 5623 5625 5632 5637 5638 5640 5644 5650 5652 5653 5653 5653 5654 5654 5656 5655 5654 5652 5651 5650 5649 5645 5642 5638 5633 5628 5622 5617 5611 5602 5594 5586 5576 5564 5555 5545 5535 5527 5519 5510 5502
5597 5599 5607 5614 5616 5622 5625 5629 5632 5634 5635 5637 5641 5642 5641 5642 5643 5642 5640 5640 5641 5639 5637 5633 5630 5627 5623 5617 5612 5607 5601 5594 5587 5580 5569 5558 5548 5537 5529 5522 5515 5509 5500 5492
5584 5588 5593 5604 5607 5607 5611 5613 5619 5622 5627 5627 5627 5626 5631 5632 5631 5630 5629 5629 5627 5624 5622 5619 5616 5613 5608 5603 5599 5593 5586 5579 5569 5560 5552 5543 5531 5523 5517 5512 5507 5500 5491 5482
5572 5576 5584 5592 5595 5597 5598 5608 5609 5610 5611 5610 5611 5615 5616 5615 5615 5615 5615 5614 5613 5612 5609 5606 5603 5599 5595 5589 5583 5577 5570 5561 5551 5544 5536 5526 5518 5512 5508 5503 5497 5491 5484 5475
5561 5564 5572 5577 5581 5584 5593 5592 5593 5594 5595 5596 5597 5598 5598 5599 5599 5600 5600 5600 5599 5597 5594 5591 5588 5583 5578 5572 5566 5559 5551 5544 5536 5528 5519 5512 5506 5502 5498 5494 5488 5482 5475 5468
5551 5556 5562 5565 5570 5573 5576 5577 5579 5580 5581 5583 5585 5586 5586 5587 5587 5587 5586 5584 5582 5580 5578 5574 5571 5566 5561 5555 5547 5541 5535 5528 5520 5511 5505 5500 5497 5493 5488 5483 5478 5473 5467 5461
5538 5547 5551 5554 5557 5560 5565 5567 5567 5568 5567 5567 5568 5570 5572 5572 5571 5571 5569 5568 5566 5564 5561 5559 5554 5549 5543 5537 5533 5526 5519 5511 5504 5498 5493 5490 5486 5482 5477 5473 5467 5462 5458 5452
5529 5536 5539 5541 5544 5548 5551 5553 5553 5553 5554 5554 5554 5555 5556 5556 5556 5555 5554 5552 5550 5548 5545 5541 5536 5532 5526 5522 5517 5510 5502 5495 5491 5488 5484 5480 5475 5472 5467 5460 5456 5452 5447 5442
5521 5523 5524 5529 5532 5537 5539 5539 5541 5542 5543 5544 5544 5543 5543 5542 5541 5540 5538 5536 5533 5529 5526 5523 5520 5516 5512 5506 5499 5492 5488 5485 5481 5477 5474 5471 5467 5462 5455 5451 5445 5440 5436 5431
5510 5512 5516 5520 5523 5526 5526 5526 5527 5528 5530 5531 5531 5530 5529 5529 5528 5526 5523 5520 5517 5515 5511 5508 5504 5500 5495 5489 5484 5480 5476 5472 5470 5467 5464 5460 5455 5452 5449 5444 5435 5429 5424 5419
5497 5502 5505 5509 5511 5512 5512 5512 5514 5515 5516 5516 5515 5514 5514 5512 5511 5510 5507 5506 5503 5500 5496 5491 5487 5482 5478 5474 5470 5468 5466 5463 5460 5456 5453 5449 5443 5439 5435 5431 5428 5423 5414 5406
5484 5488 5492 5494 5496 5497 5498 5499 5500 5500 5500 5500 5500 5499 5499 5498 5498 5497 5495 5492 5488 5484 5479 5475 5470 5468 5463 5461 5459 5457 5455 5451 5448 5444 5439 5436 5432 5426 5421 5417 5412 5406 5400 5395
5472 5475 5479 5482 5483 5485 5486 5486 5486 5486 5486 5486 5485 5485 5484 5483 5482 5481 5478 5475 5472 5467 5463 5458 5455 5452 5452 5451 5448 5445 5443 5439 5435 5431 5427 5422 5418 5414 5409 5405 5400 5394 5389 5385
5462 5465 5468 5469 5471 5472 5474 5473 5473 5474 5475 5475 5473 5470 5468 5467 5466 5465 5462 5459 5455 5451 5448 5446 5442 5440 5441 5439 5437 5433 5429 5425 5421 5418 5413 5409 5405 5401 5398 5393 5389 5385 5381 5376
5449 5454 5458 5459 5460 5461 5462 5462 5463 5463 5463 5462 5459 5457 5455 5452 5449 5448 5445 5443 5441 5439 5437 5434 5432 5430 5429 5426 5423 5419 5416 5412 5406 5402 5398 5395 5392 5389 5385 5381 5377 5374 5372 5369
5441 5443 5446 5447 5449 5449 5450 5450 5450 5450 5449 5446 5444 5442 5440 5437 5434 5433 5432 5431 5430 5428 5425 5423 5421 5418 5416 5411 5406 5404 5402 5397 5391 5387 5384 5382 5379 5376 5373 5369 5366 5363 5361 5359
5430 5432 5433 5434 5434 5435 5436 5436 5434 5433 5433 5431 5429 5428 5426 5425 5424 5422 5422 5421 5418 5416 5414 5410 5407 5404 5400 5396 5391 5387 5382 5379 5376 5372 5369 5366 5364 5362 5360 5357 5354 5352 5350 5349
5418 5420 5421 5422 5422 5422 5421 5421 5420 5419 5419 5417 5416 5415 5414 5414 5413 5411 5410 5409 5405 5402 5399 5395 5391 5387 5383 5378 5373 5369 5365 5361 5358 5355 5352 5349 5348 5346 5344 5342 5340 5339 5338 5337
5405 5407 5408 5409 5409 5409 5409 5408 5407 5407 5406 5406 5405 5404 5403 5403 5401 5400 5397 5395 5391 5387 5382 5378 5373 5369 5365 5360 5356 5351 5347 5343 5340 5336 5333 5330 5328 5327 5326 5325 5324 5323 5323 5323
5393 5394 5395 5396 5397 5398 5397 5397 5397 5397 5396 5396 5395 5393 5391 5390 5388 5384 5381 5378 5374 5371 5366 5363 5358 5353 5347 5342 5336 5331 5326 5321 5318 5314 5312 5309 5307 5306 5305 5305 5305 5305 5306 5307
5384 5385 5386 5386 5386 5386 5387 5387 5386 5385 5384 5383 5382 5380 5378 5375 5372 5369 5366 5363 5360 5356 5350 5345 5340 5334 5328 5322 5316 5310 5304 5300 5295 5292 5288 5286 5284 5282 5282 5282 5283 5284 5285 5288
5375 5375 5376 5376 5377 5378 5378 5377 5376 5376 5374 5373 5370 5367 5364 5361 5357 5354 5350 5347 5342 5337 5331 5325 5319 5312 5306 5299 5293 5287 5281 5276 5271 5266 5262 5259 5256 5254 5253 5253 5254 5255 5258 5262
5368 5368 5369 5369 5369 5369 5369 5368 5366 5365 5362 5359 5356 5353 5349 5346 5342 5338 5333 5328 5323 5317 5310 5302 5295 5288 5282 5275 5268 5262 5255 5249 5242 5236 5230 5226 5222 5220 5218 5218 5219 5221 5225 5230
5361 5361 5361 5361 5361 5360 5358 5357 5354 5352 5348 5345 5341 5337 5334 5329 5325 5320 5314 5308 5301 5293 5286 5278 5270 5263 5255 5248 5240 5233 5225 5217 5210 5204 5198 5194 5190 5188 5186 5185 5188 5192 5197 5202